Location: Góry Miechowskie
(50.3599°N, 20.1803°E)
Time: 01:22:52
(UTC+00:00)

Vanguard 2 - Pass Details

Date: 18 September 2024
Orbit: 552 x 2910 km, 32.9° (Epoch: 09 October)

Event Time Altitude Azimuth Distance (km) Brightness Sun altitude
Rises 05:29:46 0° 247° (WSW) 3,671 10.5 10.2°
Reaches altitude 10° 05:33:17 10° 225° (SW) 3,083 10.3 10.8°
Maximum altitude 05:37:37 16° 191° (S) 3,096 10.7 11.5°
Drops below altitude 10° 05:43:05 10° 159° (SSE) 4,076 11.8 12.3°
Sets 05:49:04 0° 142° (SE) 5,610 12.8 13.2°
